PDT,Max TemperatureF,Mean TemperatureF,Min TemperatureF,Max Dew PointF,MeanDew PointF,Min DewpointF,Max Humidity, Mean Humidity, Min Humidity, Max Sea Level PressureIn, Mean Sea Level PressureIn, Min Sea Level PressureIn, Max VisibilityMiles, Mean VisibilityMiles, Min VisibilityMiles, Max Wind SpeedMPH, Mean Wind SpeedMPH, Max Gust SpeedMPH,PrecipitationIn, CloudCover, Events, WindDirDegrees
2012-10-1,99,84,68,58,53,46,66,42,17,30.01,29.93,29.85,10,9,7,8,4,12,0.00,0,,193
2012-10-2,101,85,69,57,52,45,61,38,15,29.90,29.84,29.77,10,9,7,9,3,12,0.00,0,,107
2012-10-3,100,85,69,53,50,46,49,33,16,29.91,29.84,29.80,10,10,10,13,5,20,0.00,2,,356
2012-10-4,90,78,65,55,51,46,59,41,23,30.05,30.00,29.92,10,10,9,14,5,16,0.00,2,,307
2012-10-5,83,72,61,56,51,46,63,50,36,30.13,30.06,30.01,10,10,10,14,7,17,0.00,6,,315
2012-10-6,82,70,58,52,51,49,80,57,33,30.05,29.98,29.91,10,10,10,14,7,21,0.00,3,,311
2012-10-7,82,70,57,54,50,48,72,53,33,30.00,29.93,29.87,10,10,10,15,6,,0.00,3,,301
2012-10-8,80,70,60,51,48,45,60,46,32,30.01,29.97,29.93,10,10,10,15,9,,0.00,4,,311
2012-10-9,80,69,57,49,46,43,72,50,28,30.01,29.95,29.89,10,10,10,12,6,15,0.00,5,,298
2012-10-10,77,67,56,51,47,44,77,55,33,29.95,29.90,29.85,10,10,10,13,6,16,T,3,Rain,198
2012-10-11,72,64,56,52,51,48,80,64,47,29.96,29.89,29.85,10,9,7,15,5,26,T,6,,171
2012-10-12,67,63,58,54,51,48,78,67,56,30.20,30.10,29.96,10,9,6,12,5,,T,7,Rain,311
2012-10-13,75,63,51,51,49,48,89,64,38,30.30,30.22,30.16,10,9,5,8,2,10,0.00,3,,300
2012-10-14,82,68,53,53,51,49,83,58,33,30.22,30.14,30.05,10,9,5,12,3,16,0.00,0,,334
2012-10-15,84,70,56,55,53,50,80,57,34,30.07,30.01,29.93,10,8,3,9,3,12,0.00,3,,85
2012-10-16,87,74,60,60,55,52,78,55,32,29.98,29.91,29.81,10,8,4,10,3,15,0.00,1,,135
2012-10-17,87,74,61,59,57,55,84,61,37,29.91,29.87,29.81,10,8,4,10,2,14,0.00,0,,159
2012-10-18,95,79,63,58,54,48,73,48,22,29.98,29.93,29.90,10,9,2,14,4,16,0.00,0,,271
2012-10-19,85,73,60,56,54,50,72,53,34,30.04,29.95,29.88,10,9,7,12,3,16,0.00,0,,334
2012-10-20,84,72,59,55,53,48,78,56,33,29.88,29.81,29.74,10,10,9,14,4,17,0.00,1,,314
2012-10-21,77,66,54,50,39,22,72,44,16,29.91,29.84,29.80,10,10,10,14,5,25,0.00,3,,315
2012-10-22,63,59,54,52,46,36,83,61,39,29.99,29.92,29.82,10,9,4,17,8,23,0.17,7,Rain,110
2012-10-23,67,57,47,51,45,42,93,68,42,30.06,30.01,29.97,10,10,6,14,5,16,0.00,5,,319
2012-10-24,69,57,45,45,41,38,86,59,32,30.18,30.12,30.04,10,10,9,14,5,18,0.00,3,,314
2012-10-25,73,62,51,49,45,42,77,56,35,30.24,30.19,30.13,10,10,10,17,7,24,0.00,4,,306
2012-10-26,72,61,49,50,47,43,86,64,41,30.23,30.16,30.09,10,10,7,8,2,12,0.00,1,,262
2012-10-27,77,64,51,49,47,45,83,58,33,30.09,30.03,29.95,10,8,6,8,2,,0.00,2,,107
2012-10-28,82,67,51,50,47,43,83,54,24,30.03,29.99,29.94,10,9,7,6,2,16,0.00,1,,327
2012-10-29,83,69,54,52,48,45,72,50,28,30.11,30.05,30.00,10,9,5,7,2,,0.00,0,,160
2012-10-30,85,70,54,53,48,44,72,50,28,30.08,30.00,29.94,10,9,6,7,2,,0.00,0,,98
2012-10-31,82,70,57,53,49,38,67,44,21,30.01,29.97,29.93,10,9,6,13,3,15,0.00,5,,260